sat.trackr.live / text

‹ back to catalog

STARLINK-5734

NORAD 55612 · 2023-020AV

PAYLOAD ACTIVE UNKNOWN

§ Identity

Operator
Country
US
Launch date
2023-02-12
Launch site
AFETR
Launch vehicle
Mass (kg)
RCS (m²)

Purposes: comms

External: N2YO · Heavens-Above · Gunter

§ Orbital elements

Epoch: 2026-09-20T15:58:44.255136Z

Period
94.27 min
Inclination
43.0045°
Eccentricity
0.0001902
Mean motion
15.27576130 rev/d
Perigee alt
481.8 km
Apogee alt
484.4 km
Semi-major
6,861.2 km
B*
3.0868e-5
RAAN
333.5136°
Arg perigee
277.9856°
Mean anomaly
82.0780°
Rev number
19,885

§ Raw data

STARLINK-57341 55612U 23020AV  26263.66578999  .00000587  00000+0  30868-4 0  99922 55612  43.0045 333.5136 0001902 277.9856  82.0780 15.27576130198850

JSON: /api/v1/satellites/55612 · /tle

For live sub-satellite position, see the globe view (requires WebGL).

§ Visibility from observer

Set your observer location to see the next 7 days of passes ≥ 10°. The values pass through the URL so the page stays shareable.

No JS? Fill the form by hand. The geolocation button needs JavaScript.